Tracking 19638 objects as of 21-Apr-2019
HD Live streaming from Space Station
objects crossing your sky now

SCOUT B DEB

Track SCOUT B DEB now!
10-day predictions


NORAD ID: 29168
Int'l Code: 1965-063S
Perigee: 967.7 km
Apogee: 2,220.5 km
Inclination: 69.3 °
Period: 117.9 minutes
Semi major axis: 7965 km
RCS: 0.0859 m2 (small)
Launch date: August 10, 1965
Source: United States (US)
Launch site: WALLOPS ISLAND (WLPIS)

Note: This is SATELLITE DEBRIS
aabbcc
Your satellite tracking list
Your tracking list is empty




NASA's NSSDC Master Catalog

Two Line Element Set (TLE):
1 29168U 65063S   19110.66337499 -.00001402  00000-0 -48009-2 0  9997
2 29168  69.2592 329.3364 0786461 286.3180 128.5213 12.21277453578849
Source of the keplerian elements: AFSPC